Hourly Data Report for July 24, 2020

TORONTO CITY
ONTARIO
Current Station Operator: ECCC - MSC

43°40'00.000" N
79°24'00.000" W
112.50 m
6158355
71508
XTO

Download Data

Hourly Data (July 2020)
Hourly Data Report for July 24, 2020
TIME
LST
Temp Definition
°C
Dew Point Definition
°C
Rel Hum Definition
%
Precip. Amount Definition
mm

Wind Dir Definition
10's deg

Wind Spd Definition
km/h
Visibility Definition
km
Stn Press Definition
kPa
Hmdx Definition


Wind Chill Definition


Weather Definition


00:00 20.4 15.8 75 0.0       100.61 25   LegendNANA
01:00 20.3 15.5 74 0.0       100.61 25   LegendNANA
02:00 20.4 15.2 72 0.0       100.63     LegendNANA
03:00 19.9 14.9 73 0.0       100.62     LegendNANA
04:00 19.7 14.7 73 0.0       100.60     LegendNANA
05:00 19.5 14.8 74 0.0       100.67     LegendNANA
06:00 19.6 14.9 74 0.0       100.72     LegendNANA
07:00 20.9 15.1 70 0.0       100.76 25   LegendNANA
08:00 22.8 15.0 61 0.0       100.76 27   LegendNANA
09:00 23.6 14.9 58 0.0       100.78 28   LegendNANA
10:00 25.1 15.3 54 0.0       100.79 29   LegendNANA
11:00 24.4 15.2 56 0.0       100.81 28   LegendNANA
12:00 25.3 15.8 56 0.0       100.78 30   LegendNANA
13:00 26.6 15.8 52 0.0       100.75 31   LegendNANA
14:00 27.4 14.3 45 0.3       100.72 31   LegendNANA
15:00 27.3 14.6 46 0.0       100.65 31   LegendNANA
16:00 26.7 13.6 44 0.3       100.62 30   LegendNANA
17:00 25.9 12.9 44 0.3       100.57 29   LegendNANA
18:00 25.4 12.3 44 0.0       100.54 28   LegendNANA
19:00 25.0 13.1 48 0.0       100.52 28   LegendNANA
20:00 23.9 12.7 49 0.0       100.55 27   LegendNANA
21:00 22.6 13.6 57 0.0       100.60 26   LegendNANA
22:00 22.1 14.3 61 0.0       100.60 26   LegendNANA
23:00 21.8 14.0 61 0.0       100.62 25   LegendNANA

Notes on Data Quality.

Legend

  • E = Estimated
  • M = Missing
  • NA = Not Available*
  • [empty] = Indicates an unobserved value
Date modified: